Tracking 27079 objects as of 23-Mar-2023
HD Live streaming from Space Station
objects crossing your sky now

COSMOS 2251 DEB

Track COSMOS 2251 DEB now!
10-day predictions


NORAD ID: 35288
Int'l Code: 1993-036AJS
Perigee: 698.7 km
Apogee: 767.4 km
Inclination: 74.0 °
Period: 99.3 minutes
Semi major axis: 7104 km
RCS: 0.0003 m2 (small)
Launch date: June 16, 1993
Source: Commonwealth of Independent States (former USSR) (CIS)
Launch site: PLESETSK MISSILE AND SPACE COMPLEX (PKMTR)

Note: This is SATELLITE DEBRIS
Your satellite tracking list
Your tracking list is empty




NASA's NSSDC Master Catalog

Two Line Element Set (TLE):
1 35288U 93036AJS 23079.81919724  .00004528  00000-0  11608-2 0  9996
2 35288  73.9543 119.7284 0048352 221.5122 138.2362 14.49907131733454
Source of the keplerian elements: AFSPC